Find Starlink 35077

NORAD ID: 65529 Int'l Des: 2025-200 Owner: SPXS Country: US Constellation: starlink operational
LEOCIRCULARRETROGRADESSO

当前视图

正在加载3D地球...

About Starlink 35077

Starlink 35077 (NORAD 65529) is a starlink constellation satellite (v2 mini) launched Sep 6, 2025 by SPXS of US. It operates in LEO, CIRCULAR, RETROGRADE, SSO orbit with a mass of 575.00 kg.

即将过境

Passes for default location (London). Set your location on the main map for personalized predictions.

高度历史

Loading altitude history...

两行轨道根数

1 65529U 25200K 26263.14911616 .00020380 00000-0 63155-3 0 9990
2 65529 97.2862 329.4822 0000835 111.9880 248.1452 15.33462907 58589
Epoch: Sep 20, 2026 • Age: 18 hours

当前状态

高度 468.4 km
远地点 / 近地点 N/A
速度 7.63 km/s
星下点 26.49°N, 168.01°W
发射日期 Sep 6, 2025
运行时间 1 year
类型 internet

技术详情

分类 Payload
质量 575.00 kg
干质量 530.00 kg
长度 0.30 m
跨度 29.00 m
形状 ? Box + pan
制造商 SPXS
平台类型 Starlink V2MO
阶段状态 In Orbit
所有者/国家 SPXS/US

Most Searched